PDT,Max TemperatureF,Mean TemperatureF,Min TemperatureF,Max Dew PointF,MeanDew PointF,Min DewpointF,Max Humidity, Mean Humidity, Min Humidity, Max Sea Level PressureIn, Mean Sea Level PressureIn, Min Sea Level PressureIn, Max VisibilityMiles, Mean VisibilityMiles, Min VisibilityMiles, Max Wind SpeedMPH, Mean Wind SpeedMPH, Max Gust SpeedMPH,PrecipitationIn, CloudCover, Events, WindDirDegrees
2012-10-1,100,79,58,47,40,33,55,33,10,30.00,29.94,29.86,10,10,10,13,2,18,0.00,0,,64
2012-10-2,103,81,59,42,37,31,46,28,9,29.89,29.83,29.76,10,10,10,12,2,15,0.00,0,,62
2012-10-3,95,78,60,54,43,35,72,43,14,29.96,29.86,29.81,10,10,10,18,6,23,0.00,0,,291
2012-10-4,78,68,57,54,53,52,86,63,40,30.12,30.06,29.97,10,10,8,21,10,23,0.00,0,,290
2012-10-5,74,66,57,54,53,51,86,66,46,30.15,30.10,30.06,10,10,6,22,10,25,0.00,2,,266
2012-10-6,73,63,52,53,49,46,89,64,38,30.07,30.02,29.96,10,10,10,17,5,22,0.00,0,,260
2012-10-7,76,63,49,51,49,44,89,61,33,30.02,29.97,29.92,10,10,10,16,5,20,0.00,0,,265
2012-10-8,73,62,51,52,49,47,89,65,41,30.03,30.01,29.98,10,10,9,17,6,22,0.00,0,,267
2012-10-9,75,62,48,53,49,44,89,64,38,30.03,29.98,29.91,10,10,10,15,4,18,0.00,1,,258
2012-10-10,76,63,50,51,50,48,89,65,41,29.95,29.92,29.85,10,10,10,20,5,23,T,2,Rain,269
2012-10-11,62,59,56,52,50,49,86,78,69,29.96,29.92,29.89,10,10,10,17,10,21,0.00,8,,266
2012-10-12,66,59,52,52,50,48,93,75,56,30.22,30.07,29.96,10,8,2,12,6,17,0.03,7,Rain,258
2012-10-13,76,61,46,53,48,43,93,66,38,30.30,30.24,30.17,10,10,9,15,2,17,0.00,0,,100
2012-10-14,80,66,51,57,53,48,100,71,42,30.21,30.15,30.05,10,7,0,13,4,14,0.00,2,Fog,304
2012-10-15,84,69,53,56,54,50,93,65,37,30.08,30.04,29.94,10,7,0,14,3,16,0.01,2,Fog,243
2012-10-16,84,72,59,61,59,54,90,67,44,29.99,29.93,29.86,10,10,10,14,5,16,0.00,0,,274
2012-10-17,87,71,55,56,34,21,93,52,10,29.91,29.87,29.81,10,10,10,16,5,21,0.00,0,,70
2012-10-18,92,73,53,61,44,32,76,47,18,30.01,29.94,29.89,10,10,10,17,5,21,0.00,0,,250
2012-10-19,79,69,58,61,60,56,93,72,50,30.04,29.97,29.90,10,9,6,16,8,20,0.00,2,,291
2012-10-20,71,61,51,55,52,46,93,73,53,29.92,29.87,29.81,10,10,10,16,7,20,0.00,3,,246
2012-10-21,66,58,49,48,43,34,80,55,29,29.93,29.88,29.85,10,10,10,20,8,22,0.03,2,Rain,272
2012-10-22,63,58,52,53,47,41,86,67,48,29.93,29.84,29.73,10,9,1,20,10,25,0.23,7,Rain,220
2012-10-23,64,55,45,50,45,37,96,68,39,30.05,30.00,29.94,10,10,10,14,4,16,0.03,3,Rain,245
2012-10-24,67,56,45,49,45,40,86,63,40,30.19,30.11,30.04,10,10,10,17,5,20,T,5,,244
2012-10-25,66,58,50,50,47,42,89,67,45,30.26,30.21,30.19,10,10,10,14,6,18,T,5,Rain,49
2012-10-26,76,61,45,44,38,29,80,50,19,30.23,30.16,30.09,10,10,10,10,2,13,0.00,0,,0
2012-10-27,82,65,48,51,46,42,80,55,30,30.09,30.02,29.94,10,10,10,12,2,15,0.00,0,,51
2012-10-28,83,67,50,56,51,46,86,60,33,30.01,29.97,29.93,10,10,10,12,2,14,0.00,0,,308
2012-10-29,81,66,50,56,52,47,89,63,36,30.10,30.05,30.01,10,10,10,8,2,12,0.00,0,,314
2012-10-30,76,62,48,56,52,47,93,66,38,30.10,30.03,29.96,10,8,2,13,4,15,0.00,3,,276
2012-10-31,66,62,57,55,54,52,93,78,63,30.02,29.99,29.97,10,10,8,18,7,23,0.07,8,Rain,240